ABS-4 (MOBISAT-1)

Last updated on Fri Dec 19 2025 00:02:48 GMT+0000 (Coordinated Universal Time)

1 28184U 04007A 25352.26525042 .00000059 00000+0 00000+0 0 9999 2 28184 5.5840 74.2253 0006052 195.8960 333.4573 1.00271175 50525
UTC large
Height (km)
Speed (km/s)
/
Latitude / Longitude
Inclination (degrees)
Orbital Period (minutes)
Azimuth
Elevation
Range (km)
Doppler Factor

Next 0 passes for location: London (51.5072 / 0.1276)

Sorry there are no passes over London.